DECAYED

STARLINK-32272, 60735 (Decayed)

Orbit data source: Space-Track

STARLINK-32272, 60735 was a payload satellite owned by SpaceX/Seattle (US) in LEO that was launched on Wed, 28 Aug 2024 UTC via an FALCON 9 launch vehicle from the Air Force Eastern Test Range (AFETR). Payload-class satellites include a variety of spacecraft equipped with specific instruments for various scientific and technological missions. These include communications satellites like Starlink; space stations such as the ISS; scientific satellites like the Hubble; Earth observation satellites from companies like Planet Labs, Umbra, and HawkEye 360; GPS; miniature CubeSats for education and research; and military/defense satellites.

Not visible in the next 10 days
Identifier
60735, 2024-152R
Orbit
Decayed
Country
Flag of USUS
Related business
Manufacturer
SpaceX/Seattle
Mission
Decayed Commercial Communications
Bus & Motor
STARLINK V2M, Unknown motor
Mass
730 kg wet, ~700 kg dry
Launch date (UTC)
2024-08-28 (2 years ago)
Launch vehicle
FALCON 9
Launch site
Air Force Eastern Test Range (AFETR)
Object type
Payload
Rocket body
Debris
Shape & HBR
Box + 2 Pan, 17.7 m
Radar Cross Section
33.884 m², Large (>1 m²)

Expand to show TLE details & history
Last TLE update: 2 weeks ago

TLE from 2 weeks ago
0 STARLINK-32272
1 60735U 24152R   26095.33342361  .18821097  12117-4  31017-2 0  9998
2 60735  53.1215 121.2106 0003661 125.4074 234.7313 16.32647796 91219
Epoch: 2026-04-05T08:00Z
TLE epoch observation values (Epoch: 2026-04-05T08:00:07.799Z)
Latitude
-0.00003°
Longitude
167.53773°
Altitude
187.757 km
Speed
7.794 km/s
True Right ascension
08h 04m 50s
True Declination
0° 00' 00"
Sunlit
Object was in full shadow at epoch
Visualization orbit readout
Latitude
Unknown
Longitude
Unknown
Altitude
Unknown
Speed
Unknown
Apparent Right ascension
Unknown
Apparent Declination
Unknown
Sunlit
N/A
Visualization observer readout
Local Sidereal Time
19:11:43
Azimuth
Unknown
Elevation
Unknown
Doppler factor
Unknown
Orbital elements
Apogee altitude
188.111 km
Perigee altitude
183.305 km
Semi-major axis
6,563.845 km
Eccentricity
0.00037
Inclination
53.1215°
RAAN
121.2106°
Arg. of periapsis
125.4074°
True anomaly
234.69706°
Mean anomaly
234.7313°
Eccentric anomaly
234.71418°
Mean motion
4.08137 °/min
Orbital period
88.21 mins
BSTAR
0.0031017
Loading maneuver chart data...
Computing Atmospheric mass density...
Loading historical data...
Loading historical data...
Loading historical data...
Loading historical data...
Loading historical data...
Loading historical data...
Loading historical data...

Documentation

Showing up to 5 results
|